Tracking 17925 objects as of 24-January-2017
HD Live streaming from Space Station
objects crossing your sky now

SCOUT G-1 DEB

Track SCOUT G-1 DEB now!
10-day predictions


NORAD ID: 22707
Int'l Code: 1993-041D
Perigee: 715.8 km
Apogee: 926.7 km
Inclination: 90.1 °
Period: 101.2 minutes
Semi major axis: 7192 km
RCS: 0.041 m2 (small)
Launch date: June 25, 1993
Source: United States (US)
Launch site: AIR FORCE WESTERN TEST RANGE (AFWTR)

Note: This is SATELLITE DEBRIS
Your satellite tracking list
Your tracking list is empty





NASA's NSSDC Master Catalog

Two Line Element Set (TLE):
1 22707U 93041D   17023.08057754  .00000186  00000-0  68995-4 0  9990
2 22707  90.0806 247.7332 0146636  19.6628 341.0135 14.23336680221209
Source of the keplerian elements: AFSPC